RH
31 38 37 40 42 46 45 45 48 48 48 47 46 47 45 49 57 57 58 66 70 82 85 88 88 92 97 90 89 90 100 99 96 84 84 72 75 72 75 83 88 95 73
29 34 36 39 44 43 44 47 47 46 48 45 43 41 45 47 58 62 73 81 75 82 85 97 100 100 96 97 97 97 98 97 99 94 88 83 76 75 76 76 84 85 73
30 33 38 38 44 43 47 47 46 45 44 44 44 42 46 54 63 79 87 86 79 91 93 94 97 97 97 98 97 98 98 98 98 99 94 91 86 77 78 85 83 70 76
32 35 38 38 42 45 47 47 46 46 45 44 44 45 50 57 77 80 83 84 89 89 91 97 97 97 98 98 98 97 97 94 97 98 98 95 93 74 81 79 92 90 78
34 37 40 38 44 47 47 47 45 45 47 45 45 53 48 70 77 74 82 84 82 81 79 91 97 98 98 91 95 92 97 97 97 98 98 91 88 95 87 79 78 78 86
37 39 40 40 47 48 47 46 47 47 46 45 43 53 50 61 69 72 81 81 80 78 84 93 94 95 98 98 94 96 97 96 96 97 98 96 87 83 95 92 82 90 96
39 42 43 44 48 47 47 47 47 46 40 43 46 52 54 56 64 71 80 81 82 80 79 83 96 97 92 96 94 96 97 97 97 96 96 93 93 81 82 99 98 84 79
42 45 44 45 46 48 46 41 38 39 41 47 48 46 48 53 60 68 79 82 89 79 80 96 97 95 96 97 92 95 96 96 95 96 95 90 83 70 73 81 99 99 85
45 47 45 43 46 48 31 27 24 24 27 35 41 43 48 57 60 69 80 87 79 81 87 95 96 97 97 98 96 96 95 96 97 97 97 93 93 96 80 92 97 99 94
47 49 44 42 44 44 23 21 27 28 31 33 33 38 49 60 60 70 81 84 80 82 96 96 97 98 95 98 98 97 96 96 96 92 94 98 99 98 98 100 92 98 87
49 47 45 41 34 27 30 34 36 31 28 34 38 41 48 62 63 70 82 82 80 86 97 95 98 98 96 99 99 98 98 97 97 96 93 82 96 99 92 88 81 93 78
48 44 46 43 41 46 46 42 37 35 27 32 39 45 50 64 65 70 83 77 75 86 97 98 99 93 96 99 98 100 98 96 97 98 98 94 86 91 94 95 90 90 75
45 45 42 45 46 50 45 42 36 37 30 41 49 56 59 73 69 71 84 74 76 84 85 92 96 97 98 97 99 100 100 99 97 97 98 96 99 98 89 97 98 84 82
45 46 44 41 40 42 39 43 38 40 37 40 53 65 71 80 71 75 86 77 79 83 85 87 93 93 93 95 97 97 97 98 98 98 98 100 100 100 91 92 98 86 82
42 44 44 42 39 38 35 37 36 38 41 40 51 66 78 81 69 72 86 76 75 80 84 87 91 92 91 94 94 98 98 98 100 100 97 99 100 100 94 93 92 84 79
45 45 45 44 39 38 34 33 32 34 36 40 48 50 65 66 64 72 83 77 75 80 86 90 92 93 94 96 96 96 96 99 99 98 98 99 100 100 100 98 84 80 85
45 45 42 37 36 35 35 34 37 33 36 41 44 43 54 65 62 74 83 78 76 82 90 90 93 96 96 97 97 97 97 97 97 100 100 99 99 100 100 93 89 83 84
44 46 43 36 37 35 35 36 38 43 47 48 37 39 45 63 62 73 84 81 81 84 91 91 95 96 97 98 98 98 98 97 97 98 97 100 100 100 94 94 92 91 89
48 45 42 39 37 36 35 36 40 44 49 55 48 28 32 56 69 66 80 96 92 90 93 94 95 99 98 98 98 98 98 97 97 98 98 100 94 99 93 91 92 88 86
40 42 42 41 39 37 36 38 42 48 54 59 64 71 55 61 74 78 79 99 95 93 97 99 97 100 100 99 98 100 99 98 98 97 98 98 99 100 90 88 88 91 88
51 47 46 41 34 38 36 37 44 51 59 60 69 69 63 81 82 86 82 100 100 98 100 100 99 100 100 100 100 100 99 98 99 97 98 97 98 100 99 95 88 78 74
51 49 45 43 42 49 47 46 42 52 56 58 62 54 51 54 67 83 82 87 99 94 99 100 99 100 100 100 100 100 100 100 100 97 97 98 99 98 100 99 96 85 73
49 46 48 48 49 51 50 55 58 53 52 55 54 53 47 46 45 54 66 67 81 74 70 84 90 90 96 100 100 100 100 98 96 97 97 96 98 97 97 99 100 100 96
52 48 45 36 48 47 60 61 59 58 56 51 48 44 38 33 35 36 42 47 54 51 60 59 66 67 74 82 93 100 100 98 96 96 96 96 98 97 97 96 97 99 100
56 49 51 59 62 50 67 56 57 54 55 45 45 38 26 22 25 25 29 33 40 39 34 39 42 48 49 52 58 74 86 95 96 96 95 95 95 96 99 98 97 97 97
67 58 51 56 61 68 61 42 51 58 42 41 36 28 20 18 20 22 23 26 28 36 34 31 31 29 35 40 42 43 56 76 91 94 96 95 95 96 97 98 97 98 97
Wind_Speed
14 13 18 20 20 18 22 23 22 25 26 27 28 27 29 27 23 21 28 30 33 28 28 25 27 26 24 21 20 19 18 21 9 17 19 20 17 15 10 9 14 8 12
15 15 18 20 19 21 23 22 25 27 26 28 29 30 29 30 20 24 32 32 32 30 29 28 27 23 23 22 20 19 18 18 18 13 18 20 17 12 11 9 11 6 17
15 16 18 21 18 23 23 24 27 27 28 29 30 32 29 27 23 32 31 33 33 29 25 24 26 24 22 22 20 21 19 21 20 16 17 16 17 15 12 11 10 16 12
15 16 19 21 21 23 23 26 29 29 31 31 31 33 29 22 27 31 32 35 32 27 25 24 26 25 21 20 17 12 16 17 13 12 13 12 17 17 13 14 11 9 16
16 18 20 20 22 24 26 28 29 30 30 31 34 32 32 20 27 37 39 32 30 29 28 26 29 20 23 19 16 15 11 12 11 10 8 9 11 12 12 14 14 14 14
16 18 20 20 23 25 27 29 30 31 33 33 35 31 33 25 35 39 41 32 32 30 29 30 27 21 26 21 16 16 16 14 12 8 8 8 12 10 8 13 15 8 2
16 18 20 20 23 25 27 29 32 33 35 35 36 34 33 30 37 43 47 39 35 33 32 31 32 24 29 27 15 15 20 16 17 18 15 15 12 14 8 11 12 18 13
16 18 19 20 22 25 28 29 31 32 34 33 34 35 35 36 40 44 45 39 31 35 36 31 24 28 28 26 17 16 14 13 14 16 22 23 23 22 19 13 9 16 15
16 17 17 18 21 24 27 28 29 31 33 31 30 33 33 35 38 42 44 36 34 35 34 26 27 28 26 27 17 15 14 11 7 10 14 19 19 17 16 12 11 9 6
14 14 15 16 18 19 23 25 28 29 30 33 35 36 33 36 40 44 45 37 36 34 28 28 30 30 26 27 30 14 12 11 8 5 5 4 15 12 18 17 14 16 10
10 10 12 13 15 17 20 24 28 32 37 36 35 36 36 38 42 45 45 39 38 34 26 31 32 32 28 27 29 26 18 11 7 3 3 5 9 11 15 17 15 23 19
9 12 10 9 13 17 20 24 29 31 37 38 37 37 38 40 41 44 44 41 41 34 30 33 33 32 29 27 29 29 24 19 14 10 2 7 11 13 15 16 17 21 18
8 9 13 10 9 14 20 22 29 29 29 29 28 30 35 37 38 43 42 41 42 38 35 34 33 31 30 30 29 29 30 25 21 18 14 12 11 14 15 17 18 16 15
10 10 10 12 13 15 19 19 25 27 22 27 29 29 33 32 38 43 42 40 40 38 35 35 33 31 30 29 32 33 30 28 22 18 17 12 14 17 18 19 20 19 14
10 9 10 12 14 15 18 20 22 24 22 19 30 29 32 33 41 43 41 40 41 38 33 33 34 34 33 33 32 31 31 32 29 25 20 13 14 16 18 21 22 18 11
10 10 11 11 14 15 18 20 20 22 23 23 27 31 34 31 36 41 39 36 39 38 34 33 33 32 31 32 31 29 30 30 30 26 20 14 18 16 17 20 18 14 13
10 9 10 11 13 16 18 20 23 24 24 25 28 33 33 32 37 38 38 36 37 38 36 35 33 32 32 31 30 29 29 30 28 25 21 9 5 14 18 18 16 15 13
10 8 9 11 11 13 15 17 19 23 26 26 32 35 36 33 35 36 38 36 40 41 38 35 34 33 32 32 32 32 32 32 31 28 24 12 6 18 18 17 17 14 12
6 7 7 8 10 12 13 16 19 22 25 26 32 38 39 35 32 37 38 36 35 37 38 36 35 34 33 33 33 33 31 31 30 27 25 16 7 16 16 14 15 13 13
9 8 6 5 8 11 13 15 18 21 23 24 25 29 35 34 34 34 36 36 36 35 36 35 36 34 34 34 34 35 34 35 34 32 30 26 12 9 14 13 13 14 14
7 6 4 7 9 10 12 14 15 17 20 22 23 25 28 26 26 28 32 33 34 35 35 35 35 35 35 34 35 36 34 34 34 33 32 30 25 9 8 9 8 13 10
4 3 4 6 7 8 10 12 14 16 19 22 23 26 29 31 30 29 31 35 32 34 34 34 35 34 36 36 35 35 34 35 36 35 32 29 26 20 9 8 10 8 8
5 5 4 4 5 5 7 9 12 14 16 18 21 25 28 30 31 32 33 35 35 36 40 39 38 40 40 38 37 37 35 36 33 33 31 30 29 25 18 14 6 7 10
5 4 1 2 2 4 6 7 9 12 14 16 19 22 24 26 29 30 32 34 36 38 39 42 41 42 42 41 39 38 39 37 34 32 31 32 31 29 26 22 18 12 7
6 5 1 2 1 1 2 4 6 9 10 13 15 18 20 23 26 28 30 32 34 37 39 41 42 42 43 41 39 38 37 37 35 35 33 33 33 34 30 27 26 24 20
6 5 4 3 1 0 3 3 5 6 9 11 13 15 18 20 22 25 28 29 32 34 36 39 41 42 43 43 40 38 37 38 37 37 37 37 38 36 34 33 31 28 28
Wind_Direction
27 39 23 13 5 12 7 1 2 356 354 352 350 347 344 344 339 329 338 336 333 322 323 315 310 310 302 297 285 281 255 232 240 270 273 286 290 291 278 278 214 255 215
29 27 22 14 10 13 7 5 3 358 358 353 350 346 343 341 330 340 343 336 330 325 329 321 311 307 305 294 283 276 262 256 240 252 265 277 282 282 284 279 225 227 221
27 24 23 16 20 15 9 8 4 360 356 352 351 348 343 344 341 350 342 334 328 320 320 326 320 315 306 296 283 267 263 251 243 243 259 269 274 274 272 255 231 232 229
29 29 27 20 21 15 13 8 4 1 357 358 356 352 354 351 357 352 345 337 334 328 322 317 316 317 312 318 315 289 278 274 263 236 250 274 271 265 255 235 217 225 218
34 33 30 23 21 17 12 9 7 5 4 2 359 4 4 357 6 358 352 346 342 338 340 331 331 312 318 328 317 313 311 283 261 235 242 251 271 254 231 231 226 222 210
39 36 30 25 21 18 15 12 11 8 6 5 6 6 1 354 356 358 357 352 348 344 342 336 335 336 319 303 291 287 281 277 271 251 215 220 241 254 255 229 213 185 195
43 40 32 28 24 19 17 15 13 11 8 7 6 1 359 357 356 358 358 354 347 344 338 332 327 340 341 342 287 288 276 264 254 248 240 237 237 239 253 240 225 214 209
49 42 34 33 27 23 20 18 16 13 8 4 2 1 359 358 358 357 355 348 343 342 333 329 344 348 348 347 343 323 304 286 264 246 239 242 244 246 239 261 278 240 207
55 44 36 39 32 28 23 24 22 20 15 8 3 359 357 353 356 357 357 350 349 345 337 5 355 356 358 357 343 336 328 325 290 252 239 240 239 233 233 229 240 184 156
62 51 44 46 38 32 29 27 23 19 13 10 6 4 357 355 356 357 359 355 353 349 352 1 357 1 4 3 359 340 323 328 327 304 272 206 217 218 213 223 234 195 163
66 61 55 46 41 37 28 22 19 16 17 10 5 1 358 359 355 356 359 0 358 352 358 2 359 4 8 8 7 5 9 356 349 318 260 207 181 200 204 215 214 192 181
71 58 57 36 25 22 20 19 19 15 15 12 5 360 358 357 356 355 359 2 3 1 4 4 3 8 10 11 10 11 15 28 25 28 335 212 196 195 198 208 203 195 203
89 67 47 31 9 18 12 12 15 11 13 12 4 357 352 352 355 356 360 4 6 5 7 7 7 10 12 13 11 13 17 10 15 21 10 2 208 189 177 173 171 183 187
75 60 51 38 32 23 15 10 13 7 6 14 7 356 350 353 360 360 1 3 5 6 5 6 9 11 14 14 13 13 12 9 8 7 7 23 151 162 166 175 164 167 161
76 67 57 41 33 24 21 19 15 13 10 358 11 2 354 359 1 0 4 7 8 7 7 9 12 12 12 10 8 7 7 8 6 4 15 21 141 146 161 169 164 167 153
88 69 52 42 28 28 19 17 25 22 20 18 13 15 11 7 6 5 7 10 12 12 13 13 12 12 10 6 4 1 2 1 358 360 14 32 140 142 152 165 172 167 150
90 68 58 46 36 28 23 19 13 15 27 23 15 21 22 9 9 11 9 12 15 15 17 13 13 10 7 4 2 360 354 354 357 359 9 38 118 165 163 169 177 182 173
94 83 54 48 37 33 29 25 22 19 16 13 18 19 22 17 13 13 13 14 14 14 15 12 9 8 6 2 359 357 354 357 0 2 8 32 83 158 167 174 179 177 180
127 89 69 55 46 39 32 30 27 24 23 18 13 19 20 18 15 17 16 17 13 11 9 9 9 7 5 2 360 358 358 358 0 5 12 40 90 159 170 170 175 177 174
113 95 81 57 53 42 37 33 30 25 25 25 19 13 12 14 15 12 13 12 11 11 8 8 7 7 4 3 2 1 2 5 6 8 13 25 38 154 167 175 171 159 173
105 102 74 62 57 49 39 35 34 28 26 26 25 18 22 19 14 15 13 12 10 9 8 8 8 8 7 6 6 5 6 7 9 9 15 20 33 78 170 173 179 185 158
136 119 85 67 57 51 46 34 35 32 29 26 24 22 25 28 22 19 18 20 13 13 13 11 11 12 11 12 10 8 10 9 11 12 15 24 33 44 92 172 176 178 182
150 141 132 91 86 53 49 40 35 35 34 33 29 25 26 27 28 28 26 29 23 21 23 20 18 20 22 27 30 25 17 12 19 22 24 28 35 36 55 62 109 174 190
177 179 206 97 97 58 58 34 36 35 35 33 32 31 27 27 28 29 31 32 33 30 30 30 29 30 31 34 37 40 40 27 40 36 42 40 36 41 39 50 54 70 111
177 167 186 149 328 36 52 35 41 36 35 32 35 31 29 29 28 29 32 31 35 33 34 34 34 34 37 37 40 44 51 48 48 48 48 51 51 46 41 42 45 52 67
198 186 185 195 266 296 358 41 36 26 32 33 31 31 29 30 30 30 31 31 33 36 36 37 37 40 40 41 43 47 52 56 54 56 53 53 51 47 44 45 47 48 51